• Join FlightAware (Why Join?)
  • Login
  • US Flag GB Flag 
05:22 EDT


 

Airport Tracker/Info


-or-


 

Live Flight TrackerFlight Track Log ✈ N244A ✈ 08-Nov-2013 ✈ CYYZ - KTPA

Flight Track Log - Related Links

Times and Time Zones

All times are in EST time to prevent confusion due to time zone crossing. See the N244A flight status page for this flight to view local times or setup timezone preferences in your user account.

Time Position Orientation Groundspeed Altitude Reporting Facility
EST Latitude Longitude Course Direction KTS MPH feet Rate Location/Type
18:20 43.6167 -79.7000 216° Southwest 230 265 4,100  Level Toronto Center
18:21 43.5500 -79.7167 190° South 280 322 7,100 2,940 Climbing Toronto Center
18:22 43.4667 -79.7167 180° South 290 334 10,000 2,280 Climbing Toronto Center
18:23 43.3667 -79.7167 180° South 370 426 11,700 2,100 Climbing Toronto Center
18:24 43.2500 -79.7500 192° South 420 483 14,300 2,580 Climbing Toronto Center
18:25 43.1333 -79.7500 180° South 430 495 16,900 2,280 Climbing Toronto Center
18:26 43.0167 -79.7500 180° South 440 506 18,900 1,920 Climbing Toronto Center
18:27 42.8833 -79.7500 180° South 460 529 20,800 1,740 Climbing Toronto Center
18:28 42.7914 -79.7997 202° Southwest 464 534 22,400 1,920 Climbing Cleveland Center
18:29 42.6361 -79.8350 189° South 474 545 24,800 2,100 Climbing Cleveland Center
18:30 42.5058 -79.8611 188° South 478 550 26,800 1,740 Climbing Cleveland Center
18:31 42.3800 -79.8889 189° South 476 548 28,400 1,200 Climbing Cleveland Center
18:32 42.2472 -79.9161 189° South 484 557 29,300 960 Climbing Cleveland Center
18:33 42.0856 -79.9522 189° South 493 567 30,500 960 Climbing Cleveland Center
18:34 41.9508 -79.9797 189° South 495 570 31,400 780 Climbing Cleveland Center
18:35 41.8189 -80.0067 189° South 495 570 32,200 780 Climbing Cleveland Center
18:36 41.6819 -80.0367 189° South 492 566 33,100 900 Climbing Cleveland Center
18:37 41.5314 -80.0650 188° South 493 567 34,100 900 Climbing Cleveland Center
18:38 41.3983 -80.0950 190° South 487 560 35,000 840 Climbing Cleveland Center
18:39 41.2644 -80.1206 188° South 487 560 35,900 780 Climbing Cleveland Center
18:40 41.1325 -80.1483 189° South 483 556 36,700 480 Climbing Cleveland Center
18:41 41.0039 -80.1750 189° South 472 543 37,000 120 Climbing Cleveland Center
18:43 40.8533 -80.2047 188° South 479 551 37,000  Level Cleveland Center
18:44 40.7083 -80.2358 189° South 478 550 37,000  Level Cleveland Center
18:45 40.5767 -80.2628 189° South 482 555 37,000 360 Level Cleveland Center
18:46 40.4475 -80.2897 189° South 475 547 37,800 720 Climbing Cleveland Center
18:47 40.3111 -80.3189 189° South 455 524 38,600 720 Climbing Cleveland Center
18:48 40.1908 -80.3439 189° South 445 512 39,400 660 Climbing Cleveland Center
18:49 40.0739 -80.3689 189° South 432 497 40,000 240 Climbing Cleveland Center
18:50 39.9572 -80.3933 189° South 427 491 40,000  Level Cleveland Center
18:51 39.8397 -80.4164 189° South 428 493 40,000  Level Cleveland Center
18:52 39.6986 -80.4456 189° South 427 491 40,000  Level Cleveland Center
18:53 39.5797 -80.4686 189° South 431 496 40,000  Level Cleveland Center
18:54 39.4628 -80.4964 190° South 429 494 40,000  Level Cleveland Center
18:55 39.3447 -80.5197 189° South 430 495 40,000  Level Cleveland Center
18:56 39.2256 -80.5425 188° South 434 499 40,000  Level Cleveland Center
18:57 39.0844 -80.5728 189° South 431 496 40,000  Level Cleveland Center
18:58 38.9714 -80.6114 195° South 422 486 40,000  Level Cleveland Center
18:59 38.8617 -80.6528 196° South 414 476 40,000  Level Cleveland Center
19:00 38.7075 -80.7125 197° South 414 476 40,000  Level Indianapolis Center
19:01 38.5900 -80.7406 191° South 423 487 40,000  Level Indianapolis Center
19:03 38.4703 -80.7594 187° South 431 496 40,000  Level Indianapolis Center
19:04 38.3506 -80.7833 189° South 431 496 40,000  Level Indianapolis Center
19:05 38.2319 -80.8058 188° South 429 494 40,000  Level Indianapolis Center
19:06 38.1139 -80.8283 189° South 427 491 40,000  Level Indianapolis Center
19:07 37.9717 -80.8564 189° South 428 493 40,000  Level Indianapolis Center
19:08 37.8522 -80.8772 188° South 431 496 40,000  Level Indianapolis Center
19:09 37.7297 -80.9017 189° South 432 497 40,000  Level Indianapolis Center
19:10 37.6156 -80.9231 188° South 429 494 40,000  Level Indianapolis Center
19:11 37.4975 -80.9442 188° South 433 498 40,000  Level Indianapolis Center
19:12 37.3592 -80.9717 189° South 432 497 40,000  Level Indianapolis Center
19:13 37.2422 -80.9917 188° South 434 499 40,000  Level Indianapolis Center
19:14 37.1256 -81.0150 189° South 435 501 40,000  Level Indianapolis Center
19:15 36.9856 -81.0389 188° South 435 501 40,000  Level Indianapolis Center
19:16 36.8692 -81.0608 189° South 434 499 40,000  Level Indianapolis Center
19:17 36.7533 -81.0822 188° South 433 498 40,000  Level Indianapolis Center
19:18 36.6367 -81.1025 188° South 433 498 40,000  Level Indianapolis Center
19:19 36.4967 -81.1292 189° South 435 501 40,000  Level Indianapolis Center
19:20 36.3817 -81.1494 188° South 429 494 40,000  Level Indianapolis Center
19:21 36.2658 -81.1700 188° South 430 495 40,000  Level Indianapolis Center
19:22 36.1150 -81.1986 189° South 427 491 40,000  Level Atlanta Center
19:23 35.9967 -81.2181 188° South 427 491 40,000  Level Atlanta Center
19:24 35.8636 -81.2433 189° South 440 506 40,000  Level Atlanta Center
19:25 35.7536 -81.2650 189° South 440 506 40,000  Level Atlanta Center
19:26 35.6247 -81.2847 187° South 435 501 40,000  Level Atlanta Center
19:27 35.5064 -81.3064 188° South 435 501 40,000  Level Atlanta Center
19:28 35.3836 -81.3283 188° South 435 501 40,000  Level Atlanta Center
19:29 35.2675 -81.3500 189° South 435 501 40,000  Level Atlanta Center
19:30 35.1469 -81.3717 188° South 440 506 40,000  Level Atlanta Center
19:32 34.9314 -81.4089 188° South 433 498 40,000  Level Jacksonville Center
19:33 34.8083 -81.4286 187° South 438 504 40,000  Level Jacksonville Center
19:34 34.6919 -81.4533 190° South 438 504 40,000  Level Jacksonville Center
19:35 34.5692 -81.4706 187° South 438 504 40,000  Level Jacksonville Center
19:36 34.4483 -81.4925 189° South 444 511 40,000  Level Jacksonville Center
19:37 34.3339 -81.5147 189° South 444 511 40,000  Level Jacksonville Center
19:38 34.2153 -81.5392 190° South 444 511 40,000  Level Jacksonville Center
19:39 34.1028 -81.5758 195° South 437 503 40,000  Level Jacksonville Center
19:40 33.9864 -81.6078 193° South 431 496 40,000  Level Jacksonville Center
19:41 33.8719 -81.6369 192° South 431 496 40,000  Level Jacksonville Center
19:42 33.7575 -81.6736 195° South 431 496 40,000  Level Jacksonville Center
19:43 33.6431 -81.7025 192° South 431 496 40,000  Level Jacksonville Center
19:44 33.5264 -81.7364 194° South 431 496 40,000  Level Jacksonville Center
19:45 33.4119 -81.7678 193° South 431 496 40,000  Level Jacksonville Center
19:46 33.2975 -81.7992 193° South 431 496 40,000  Level Jacksonville Center
19:47 33.1808 -81.8328 194° South 431 496 40,000  Level Jacksonville Center
19:48 33.0642 -81.8639 193° South 431 496 40,000  Level Jacksonville Center
19:49 32.9497 -81.8950 193° South 431 496 40,000  Level Jacksonville Center
19:50 32.8308 -81.9283 193° South 431 496 40,000  Level Jacksonville Center
19:51 32.7142 -81.9592 193° South 431 496 40,000  Level Jacksonville Center
19:52 32.6017 -81.9950 195° South 423 487 40,000  Level Jacksonville Center
19:53 32.4831 -82.0208 190° South 423 487 40,000  Level Jacksonville Center
19:54 32.3558 -82.0614 195° South 429 494 40,000  Level Jacksonville Center
19:55 32.2497 -82.0917 194° South 435 501 40,000  Level Jacksonville Center
19:56 32.1139 -82.1053 185° South 443 510 40,000  Level Jacksonville Center
19:57 32.0014 -82.1183 186° South 453 521 40,000  Level Jacksonville Center
19:58 31.8658 -82.1342 186° South 453 521 40,000  Level Jacksonville Center
19:59 31.7425 -82.1450 184° South 445 512 40,000  Level Jacksonville Center
20:00 31.6342 -82.1556 185° South 438 504 40,000  Level Jacksonville Center
20:01 31.5067 -82.1689 185° South 444 511 40,000  Level Jacksonville Center
20:02 31.3858 -82.1819 185° South 444 511 40,000  Level Jacksonville Center
20:03 31.2606 -82.1928 184° South 444 511 40,000  Level Jacksonville Center
20:04 31.1353 -82.2058 185° South 444 511 40,000 -240 Level Jacksonville Center
20:05 31.0100 -82.2186 185° South 449 517 39,600 -540 Descending Jacksonville Center
20:06 30.8808 -82.2342 186° South 454 522 39,000 -600 Descending Jacksonville Center
20:07 30.7514 -82.2447 184° South 466 536 38,400 -540 Descending Jacksonville Center
20:08 30.6200 -82.2625 187° South 472 543 38,000 -300 Descending Jacksonville Center
20:09 30.4800 -82.2683 182° South 466 536 37,900 -60 Descending Jacksonville Center
20:10 30.3486 -82.2811 185° South 466 536 37,900 -240 Level Jacksonville Center
20:11 30.2172 -82.2939 185° South 466 536 37,500 -1,320 Descending Jacksonville Center
20:12 30.0856 -82.3069 185° South 471 542 35,300 -2,220 Descending Jacksonville Center
20:13 29.9500 -82.3269 187° South 484 557 33,100 -1,980 Descending Jacksonville Center
20:14 29.8436 -82.3369 185° South 490 564 31,400 -2,220 Descending Jacksonville Center
20:15 29.6786 -82.3475 183° South 490 564 28,700 -2,460 Descending Jacksonville Center
20:16 29.5367 -82.3556 183° South 501 577 26,500 -1,740 Descending Jacksonville Center
20:17 29.3969 -82.3347 173° South 501 577 25,300 -2,040 Descending Jacksonville Center
20:18 29.2547 -82.3214 175° South 511 588 22,500 -2,700 Descending Jacksonville Center
20:19 29.1169 -82.3031 173° South 511 588 19,900 -2,520 Descending Jacksonville Center
20:20 28.9853 -82.2872 174° South 496 571 17,500 -2,520 Descending Jacksonville Center
20:21 28.8600 -82.2739 175° South 481 554 14,900 -1,560 Descending Jacksonville Center
20:23 28.6167 -82.2500 175° South 440 506 13,000 -960 Descending Tampa TRACON
20:24 28.5000 -82.2500 180° South 422 486 12,100 -960 Descending Tampa TRACON
20:25 28.3833 -82.2500 180° South 420 483 11,000 -600 Descending Tampa TRACON
20:26 28.2833 -82.3333 216° Southwest 415 478 11,000 -300 Level Tampa TRACON
20:27 28.2000 -82.4000 215° Southwest 304 350 10,500 -1,320 Descending Tampa TRACON
20:28 28.1333 -82.4167 192° South 291 335 8,500 -2,460 Descending Tampa TRACON
20:29 28.0500 -82.4167 180° South 302 348 5,900 -1,860 Descending Tampa TRACON
20:30 27.9833 -82.4167 180° South 258 297 5,000 -960 Descending Tampa TRACON
20:31 27.8833 -82.4500 196° South 262 302 3,700 -1,140 Descending Tampa TRACON
20:32 27.8167 -82.4667 192° South 272 313 2,600 -600 Descending Tampa TRACON
20:33 27.8167 -82.5333 270° West 216 249 2,600 -180 Level Tampa TRACON
20:34 27.8500 -82.5500 336° Northwest 144 166 2,300 -720 Descending Tampa TRACON
20:35 27.8833 -82.5500 360° North 133 153 1,400 -780 Descending Tampa TRACON
20:36 27.9167 -82.5500 360° North 111 128 800 -600 Descending Tampa TRACON